{"data":{"norad_id":51133,"intl_designator":"2022-005AF","name":"STARLINK-3356","alt_names":[],"object_type":"PAYLOAD","status":"ACTIVE","operator":null,"country":"US","launch_date":"2022-01-19","launch_site_code":"AFETR","launch_vehicle":null,"mission":null,"orbit_class":"UNKNOWN","rcs_meters":null,"size_class":null,"mass_kg":null,"dimensions":null,"purposes":["comms"],"wikipedia_slug":null,"has_3d_model":false,"image_url":null,"decayed_at":null,"tle_current":{"epoch":"2026-05-25T04:08:07.197792Z","epoch_age_seconds":70554,"freshness":"FRESH","line1":"1 51133U 22005AF  26145.17230553  .00002647  00000+0  18435-3 0  9998","line2":"2 51133  53.2130 315.7768 0000912  97.2974 262.8122 15.08828243240275","mean_motion":15.08828243,"eccentricity":9.12e-5,"inclination_deg":53.213,"raan_deg":315.7768,"arg_perigee_deg":97.2974,"mean_anomaly_deg":262.8122,"bstar":0.00018435,"rev_number":24027,"period_min":95.438298340496,"perigee_km":539.1484116741,"apogee_km":540.41023961189,"semimajor_km":6917.916325643,"source":"CELESTRAK","updated_at":"2026-05-25T13:38:16.912954Z"}}}